EW9290 Weather Reports


Display with metric or nautical units.
time (UTC)temp
F
wind
direction
speed
MPH
gust
MPH
rain 1hr
in
rain 24hr
in
rain mn
in
humidity
%
barometer
mb
20260902123026 78 193 0.0 0.0 0.00 0.00 0.00 90 1014.9
20260902122526 77 193 0.0 0.0 0.00 0.00 0.00 91 1014.8
20260902122021 76 192 0.0 0.0 0.00 0.00 0.00 92 1015.0
20260902121516 75 192 0.0 0.0 0.00 0.00 0.00 94 1014.9
20260902121011 74 192 0.0 0.0 0.00 0.00 0.00 96 1014.8
20260902120507 73 180 0.0 0.0 0.00 0.00 0.00 97 1014.8
20260902120003 73 172 0.0 0.0 0.00 0.00 0.00 98 1014.6
20260902115458 73 172 0.0 0.0 0.00 0.00 0.00 99 1014.6
20260902114954 72 157 0.0 0.0 0.00 0.00 0.00 99 1014.6
20260902114450 72 157 0.0 0.0 0.00 0.00 0.00 99 1014.4
20260902113944 72 157 0.0 0.0 0.00 0.00 0.00 99 1014.1
20260902113440 72 157 0.0 0.0 0.00 0.00 0.00 99 1014.3
20260902112939 72 157 0.0 0.0 0.00 0.00 0.00 99 1014.3
20260902112436 72 159 0.0 0.0 0.00 0.00 0.00 99 1014.2
20260902111932 72 150 0.0 0.0 0.00 0.00 0.00 99 1014.2
20260902111428 71 140 0.0 0.0 0.00 0.00 0.00 99 1014.2
20260902110924 71 140 0.0 0.0 0.00 0.00 0.00 99 1014.2
20260902110420 71 140 0.0 0.0 0.00 0.00 0.00 99 1014.0
20260902105914 71 140 0.0 0.0 0.00 0.00 0.00 99 1014.1
20260902105409 71 135 0.0 0.0 0.00 0.00 0.00 99 1014.1
20260902104904 72 138 0.0 0.0 0.00 0.00 0.00 99 1014.3
20260902104400 72 138 0.0 0.0 0.00 0.00 0.00 99 1014.2
20260902103859 72 137 0.0 0.0 0.00 0.00 0.00 99 1014.2
20260902103355 72 140 0.0 0.0 0.00 0.00 0.00 99 1014.0
20260902102855 72 140 0.0 0.0 0.00 0.00 0.00 99 1014.2
20260902102353 72 138 0.0 0.0 0.00 0.00 0.00 99 1014.0
20260902101848 72 139 0.0 0.0 0.00 0.00 0.00 99 1014.0
20260902101343 72 138 0.0 0.0 0.00 0.00 0.00 99 1014.1
20260902100842 72 139 0.0 0.0 0.00 0.00 0.00 99 1013.7
20260902100336 72 139 0.0 0.0 0.00 0.00 0.00 99 1013.6
20260902095832 72 138 0.0 0.0 0.00 0.00 0.00 99 1013.7
20260902095331 72 152 0.0 0.0 0.00 0.00 0.00 99 1013.8
20260902094831 72 147 0.0 0.0 0.00 0.00 0.00 99 1014.1
20260902094328 72 162 0.0 0.0 0.00 0.00 0.00 99 1014.1
20260902093827 72 149 1.0 1.0 0.00 0.00 0.00 99 1014.1
20260902093322 72 170 0.0 0.0 0.00 0.00 0.00 99 1014.1
20260902092821 72 168 0.0 0.0 0.00 0.00 0.00 99 1014.2
20260902092317 72 153 0.0 0.0 0.00 0.00 0.00 99 1014.4
20260902091811 72 153 0.0 0.0 0.00 0.00 0.00 99 1014.3
20260902091307 72 151 0.0 0.0 0.00 0.00 0.00 99 1014.1
20260902090803 72 148 0.0 0.0 0.00 0.00 0.00 99 1014.3
20260902090302 72 148 0.0 0.0 0.00 0.00 0.00 99 1014.4
20260902085801 72 148 0.0 0.0 0.00 0.00 0.00 99 1014.6
20260902085257 72 148 0.0 0.0 0.00 0.00 0.00 99 1014.3
20260902084753 72 148 0.0 0.0 0.00 0.00 0.00 99 1014.2
20260902084248 72 148 0.0 0.0 0.00 0.00 0.00 99 1014.4
20260902083744 72 148 0.0 0.0 0.00 0.00 0.00 99 1014.0
20260902083238 72 148 0.0 0.0 0.00 0.00 0.00 99 1014.2
20260902082733 72 148 0.0 0.0 0.00 0.00 0.00 99 1014.2
20260902082230 72 147 0.0 0.0 0.00 0.00 0.00 99 1014.0
20260902081726 72 145 0.0 0.0 0.00 0.00 0.00 99 1014.1
20260902081221 72 145 0.0 0.0 0.00 0.00 0.00 99 1014.0
20260902080716 72 145 0.0 0.0 0.00 0.00 0.00 99 1014.0
20260902080213 72 145 0.0 0.0 0.00 0.00 0.00 99 1014.0
20260902075712 72 150 0.0 0.0 0.00 0.00 0.00 99 1014.1
20260902075209 72 151 0.0 0.0 0.00 0.00 0.00 99 1014.0
20260902074708 72 150 0.0 0.0 0.00 0.00 0.00 99 1014.0
20260902074203 72 150 0.0 0.0 0.00 0.00 0.00 99 1013.9
20260902073659 72 153 0.0 0.0 0.00 0.00 0.00 99 1014.1
20260902073155 72 143 0.0 0.0 0.00 0.00 0.00 99 1014.0
20260902072651 72 147 0.0 0.0 0.00 0.00 0.00 99 1014.0
20260902072147 72 147 0.0 0.0 0.00 0.00 0.00 99 1014.1
20260902071642 72 133 0.0 0.0 0.00 0.00 0.00 99 1014.2
20260902071138 72 135 0.0 0.0 0.00 0.00 0.00 99 1014.1
20260902070634 72 158 0.0 0.0 0.00 0.00 0.00 99 1014.1
20260902070133 72 158 0.0 1.0 0.00 0.00 0.00 99 1014.0
20260902065632 72 151 0.0 0.0 0.00 0.00 0.00 99 1014.0
20260902065128 72 145 0.0 0.0 0.00 0.00 0.00 99 1014.3
20260902064623 72 158 0.0 0.0 0.00 0.00 0.00 99 1014.2
20260902064119 72 168 0.0 0.0 0.00 0.00 0.00 99 1014.4
20260902063614 72 141 0.0 0.0 0.00 0.00 0.00 99 1014.2
20260902063109 72 147 0.0 0.0 0.00 0.00 0.00 99 1014.3
20260902062607 72 163 0.0 0.0 0.00 0.00 0.00 99 1014.4
20260902062103 72 138 0.0 0.0 0.00 0.00 0.00 99 1014.7
20260902061603 72 156 0.0 0.0 0.00 0.00 0.00 99 1014.3
20260902061059 72 156 0.0 0.0 0.00 0.00 0.00 99 1014.6
20260902060555 72 156 0.0 0.0 0.00 0.00 0.00 99 1014.4
20260902060051 72 156 0.0 0.0 0.00 0.00 0.00 99 1014.4
20260902055547 72 167 0.0 0.0 0.00 0.00 0.00 99 1014.4
20260902055042 72 136 0.0 0.0 0.00 0.00 0.00 99 1014.3
20260902054537 72 177 0.0 0.0 0.00 0.00 0.00 99 1014.1
20260902054033 72 154 0.0 0.0 0.00 0.00 0.00 98 1014.3
20260902053533 72 162 0.0 0.0 0.00 0.00 0.00 98 1014.4
20260902053027 72 152 0.0 0.0 0.00 0.00 0.00 98 1014.2
20260902052521 72 161 0.0 0.0 0.00 0.00 0.00 98 1014.2
20260902052018 72 172 0.0 0.0 0.00 0.00 0.00 98 1014.3
20260902051517 72 172 0.0 0.0 0.00 0.00 0.00 98 1014.6
20260902051016 72 172 0.0 0.0 0.00 0.00 0.00 98 1014.3
20260902050511 72 172 0.0 0.0 0.00 0.00 0.00 98 1014.4
20260902050008 72 172 0.0 0.0 0.00 0.00 0.00 98 1014.2
20260902045501 72 172 0.0 0.0 0.00 0.00 0.00 97 1014.2
20260902044958 72 172 0.0 0.0 0.00 0.00 0.00 97 1014.4
20260902044452 72 172 0.0 0.0 0.00 0.00 0.00 97 1014.2
20260902043948 72 172 0.0 0.0 0.00 0.00 0.00 96 1014.2
20260902043443 73 172 0.0 0.0 0.00 0.00 0.00 96 1014.2
20260902042938 73 172 0.0 0.0 0.00 0.00 0.00 96 1014.0
20260902042437 73 172 0.0 0.0 0.00 0.00 0.00 95 1013.9
20260902041933 73 172 0.0 0.0 0.00 0.00 0.00 95 1013.7
20260902041427 73 172 0.0 0.0 0.00 0.00 0.00 94 1014.0
20260902040926 74 172 0.0 0.0 0.00 0.00 0.00 94 1014.1
20260902040421 74 173 0.0 0.0 0.00 0.00 0.00 93 1013.7
20260902035921 74 174 0.0 0.0 0.00 0.00 0.00 93 1013.4
20260902035416 75 210 0.0 0.0 0.00 0.00 0.00 93 1013.7
20260902034915 75 211 0.0 0.0 0.00 0.00 0.00 92 1013.7
20260902034410 75 211 0.0 0.0 0.00 0.00 0.00 92 1014.0
20260902033909 75 211 0.0 0.0 0.00 0.00 0.00 92 1014.1
20260902033403 75 211 0.0 0.0 0.00 0.00 0.00 91 1014.1
20260902032902 76 211 0.0 0.0 0.00 0.00 0.00 91 1013.9
20260902032356 76 211 0.0 0.0 0.00 0.00 0.00 91 1013.8
20260902031851 76 211 0.0 0.0 0.00 0.00 0.00 91 1014.0
20260902031347 75 223 0.0 0.0 0.00 0.00 0.00 93 1014.2
20260902030843 75 224 0.0 0.0 0.00 0.00 0.00 93 1013.9
20260902030337 75 223 0.0 0.0 0.00 0.00 0.00 95 1014.0
20260902025836 74 223 0.0 0.0 0.00 0.00 0.00 96 1014.1
20260902025332 74 224 0.0 0.0 0.00 0.00 0.00 96 1013.8
20260902024826 74 224 0.0 0.0 0.00 0.00 0.00 96 1014.1
20260902024322 74 225 0.0 0.0 0.00 0.00 0.00 96 1013.8
20260902023817 74 225 0.0 0.0 0.00 0.00 0.00 96 1014.1
20260902023313 73 203 1.0 1.0 0.00 0.00 0.00 97 1013.9
20260902022811 72 217 0.0 0.0 0.00 0.00 0.00 97 1014.1
20260902022307 72 217 0.0 0.0 0.00 0.00 0.00 97 1013.9
20260902021803 73 216 0.0 0.0 0.00 0.00 0.00 96 1014.0
20260902021257 73 216 0.0 0.0 0.00 0.00 0.00 95 1013.7
20260902020753 73 216 0.0 0.0 0.00 0.00 0.00 95 1013.8
20260902020249 73 217 0.0 0.0 0.00 0.00 0.00 95 1013.8
20260902015744 73 217 0.0 0.0 0.00 0.00 0.00 94 1014.0
20260902015240 73 217 0.0 0.0 0.00 0.00 0.00 94 1013.7
20260902014736 74 217 0.0 0.0 0.00 0.00 0.00 93 1013.9
20260902014233 74 217 0.0 0.0 0.00 0.00 0.00 93 1013.7
20260902013730 74 217 0.0 0.0 0.00 0.00 0.00 93 1013.6
20260902013226 74 217 0.0 0.0 0.00 0.00 0.00 92 1013.7
20260902012721 74 217 0.0 0.0 0.00 0.00 0.00 91 1013.4
20260902012218 75 217 0.0 0.0 0.00 0.00 0.00 91 1013.5
20260902011713 75 217 0.0 0.0 0.00 0.00 0.00 90 1013.4
20260902011212 75 217 0.0 0.0 0.00 0.00 0.00 90 1013.3
20260902010706 76 217 0.0 0.0 0.00 0.00 0.00 89 1013.4
20260902010202 76 217 0.0 0.0 0.00 0.00 0.00 87 1013.2
20260902005700 77 217 0.0 0.0 0.00 0.00 0.00 86 1013.4
20260902005156 77 217 0.0 0.0 0.00 0.00 0.00 85 1013.0
20260902004655 77 217 0.0 0.0 0.00 0.00 0.00 84 1012.9
20260902004150 78 217 0.0 0.0 0.00 0.00 0.00 83 1013.0
20260902003646 78 217 0.0 0.0 0.00 0.00 0.00 82 1013.0
20260902003142 79 217 0.0 0.0 0.00 0.00 0.00 81 1013.4
20260902002636 79 217 0.0 0.0 0.00 0.00 0.00 81 1013.3
20260902002131 79 217 0.0 0.0 0.00 0.00 0.00 81 1013.2
20260902001626 79 217 0.0 0.0 0.00 0.00 0.00 81 1013.2
20260902001121 80 217 0.0 0.0 0.00 0.00 0.00 80 1013.3
20260902000616 80 217 0.0 0.0 0.00 0.00 0.00 80 1013.0
20260902000111 80 217 0.0 0.0 0.00 0.00 0.00 79 1013.2
20260901235610 80 222 0.0 1.0 0.00 0.00 0.00 79 1013.1
20260901235106 80 215 0.0 0.0 0.00 0.00 0.00 79 1013.2
20260901234605 81 200 0.0 0.0 0.00 0.00 0.00 79 1013.2
20260901234101 81 237 0.0 0.0 0.00 0.00 0.00 78 1013.5
20260901233601 81 243 0.0 0.0 0.00 0.00 0.00 78 1013.6
20260901233057 81 235 0.0 0.0 0.00 0.00 0.00 78 1013.4
20260901232552 82 192 0.0 0.0 0.00 0.00 0.00 78 1013.4
20260901232047 82 219 0.0 1.0 0.00 0.00 0.00 78 1013.4
20260901231543 82 234 1.0 1.0 0.00 0.00 0.00 77 1013.6
20260901231039 82 248 3.0 5.0 0.00 0.00 0.00 77 1013.6
20260901230540 82 214 0.0 0.0 0.00 0.00 0.00 78 1013.7
20260901230034 82 225 1.0 1.0 0.00 0.00 0.00 78 1013.8
20260901225530 82 233 1.0 1.0 0.00 0.00 0.00 78 1013.9
20260901225029 82 226 0.0 0.0 0.00 0.00 0.00 78 1013.9
20260901224525 82 220 0.0 0.0 0.00 0.00 0.00 78 1013.7
20260901224021 82 235 1.0 1.0 0.00 0.00 0.00 77 1013.9
20260901223516 83 224 0.0 0.0 0.00 0.00 0.00 77 1014.0
20260901223012 83 218 1.0 1.0 0.00 0.00 0.00 76 1013.9
20260901222508 83 232 2.0 2.0 0.00 0.00 0.00 75 1014.1
20260901222004 84 231 3.0 5.0 0.00 0.00 0.00 74 1014.1
20260901221459 85 222 0.0 0.0 0.00 0.00 0.00 72 1014.1
20260901220955 85 226 1.0 2.0 0.00 0.00 0.00 71 1014.2
20260901220454 85 222 2.0 2.0 0.00 0.00 0.00 71 1014.0
20260901215952 84 225 2.0 2.0 0.00 0.00 0.00 73 1014.0
20260901215451 84 222 1.0 2.0 0.00 0.00 0.00 72 1013.9
20260901214950 85 260 1.0 2.0 0.00 0.00 0.00 71 1013.9
20260901214449 86 247 2.0 2.0 0.00 0.00 0.00 69 1014.1
20260901213944 86 258 2.0 2.0 0.00 0.00 0.00 68 1014.1
20260901213438 87 274 3.0 3.0 0.00 0.00 0.00 67 1013.8
20260901212938 87 279 1.0 5.0 0.00 0.00 0.00 69 1014.0
20260901212433 87 241 2.0 2.0 0.00 0.00 0.00 68 1013.8
20260901211930 86 244 5.0 8.0 0.00 0.00 0.00 69 1013.6
20260901211425 86 211 3.0 5.0 0.00 0.00 0.00 68 1013.8
20260901210921 87 209 4.0 7.0 0.00 0.00 0.00 69 1013.7
20260901210417 86 255 2.0 3.0 0.00 0.00 0.00 71 1013.8
20260901205913 86 239 2.0 2.0 0.00 0.00 0.00 72 1013.8
20260901205407 87 242 7.0 8.0 0.00 0.00 0.00 69 1013.5
20260901204902 87 217 7.0 13.0 0.00 0.00 0.00 68 1013.7
20260901204358 87 284 7.0 10.0 0.00 0.00 0.00 69 1013.7
20260901203852 87 232 3.0 3.0 0.00 0.00 0.00 70 1013.8
20260901203347 87 238 3.0 5.0 0.00 0.00 0.00 70 1013.7
20260901202842 87 246 5.0 7.0 0.00 0.00 0.00 70 1013.7
20260901202337 87 231 3.0 3.0 0.00 0.00 0.00 72 1013.6
20260901201833 86 234 2.0 3.0 0.00 0.00 0.00 76 1013.9
20260901201332 86 221 2.0 2.0 0.00 0.00 0.00 75 1013.9
20260901200826 85 209 4.0 5.0 0.00 0.00 0.00 75 1013.9
20260901200322 84 222 5.0 6.0 0.00 0.00 0.00 77 1013.9
20260901195821 85 215 0.0 0.0 0.00 0.00 0.00 77 1013.9
20260901195319 85 216 2.0 3.0 0.00 0.00 0.00 76 1014.0
20260901194815 86 179 3.0 3.0 0.00 0.00 0.00 74 1014.0
20260901194309 85 258 2.0 3.0 0.00 0.00 0.00 76 1013.8
20260901193806 86 204 1.0 1.0 0.00 0.00 0.00 74 1013.7
20260901193304 86 213 3.0 5.0 0.00 0.00 0.00 73 1013.7
20260901192759 87 266 3.0 5.0 0.00 0.00 0.00 71 1013.7
20260901192255 87 224 6.0 7.0 0.00 0.00 0.00 71 1013.8
20260901191750 87 246 1.0 1.0 0.00 0.00 0.00 72 1013.6
20260901191247 86 220 3.0 3.0 0.00 0.00 0.00 72 1013.6
20260901190742 86 230 3.0 3.0 0.00 0.00 0.00 71 1013.4
20260901190242 86 218 5.0 9.0 0.00 0.00 0.00 70 1013.4
20260901185740 87 213 4.0 5.0 0.00 0.00 0.00 72 1013.7
20260901185239 87 266 0.0 0.0 0.00 0.00 0.00 70 1013.4
20260901184735 87 243 4.0 5.0 0.00 0.00 0.00 71 1013.6
20260901184230 86 235 2.0 2.0 0.00 0.00 0.00 71 1013.5
20260901183726 87 216 2.0 2.0 0.00 0.00 0.00 70 1013.5
20260901183225 87 232 0.0 0.0 0.00 0.00 0.00 69 1013.5
20260901182722 86 211 1.0 2.0 0.00 0.00 0.00 72 1013.7
20260901182221 86 248 5.0 8.0 0.00 0.00 0.00 70 1013.6
20260901181716 85 206 1.0 1.0 0.00 0.00 0.00 74 1013.7
20260901181215 85 229 7.0 11.0 0.00 0.00 0.00 73 1013.8
20260901180715 85 225 3.0 3.0 0.00 0.00 0.00 73 1013.9
20260901180209 84 234 1.0 2.0 0.00 0.00 0.00 75 1014.2
20260901175708 85 209 4.0 5.0 0.00 0.00 0.00 75 1014.1
20260901175208 84 250 1.0 2.0 0.00 0.00 0.00 75 1013.9
20260901174703 84 248 3.0 3.0 0.00 0.00 0.00 76 1014.2
20260901174159 84 205 3.0 6.0 0.00 0.00 0.00 77 1014.1
20260901173655 85 177 4.0 6.0 0.00 0.00 0.00 74 1013.9
20260901173150 84 230 5.0 6.0 0.00 0.00 0.00 73 1014.3
20260901172646 83 291 3.0 3.0 0.00 0.00 0.00 75 1014.3
20260901172144 83 223 6.0 7.0 0.00 0.00 0.00 74 1014.3
20260901171644 83 213 3.0 3.0 0.00 0.00 0.00 74 1014.4
20260901171143 85 241 4.0 5.0 0.00 0.00 0.00 74 1014.6
20260901170643 84 223 2.0 2.0 0.00 0.00 0.00 75 1014.4
20260901170137 84 210 4.0 7.0 0.00 0.00 0.00 75 1014.4
20260901165636 84 250 5.0 7.0 0.00 0.00 0.00 75 1014.3
20260901165131 84 244 1.0 2.0 0.00 0.00 0.00 75 1014.8
20260901164628 84 219 4.0 5.0 0.00 0.00 0.00 74 1014.8
20260901164122 84 265 3.0 5.0 0.00 0.00 0.00 74 1014.6
20260901163618 84 251 2.0 3.0 0.00 0.00 0.00 75 1014.9
20260901163117 85 248 1.0 1.0 0.00 0.00 0.00 73 1014.9
20260901162612 85 247 2.0 3.0 0.00 0.00 0.00 73 1014.7
20260901162106 85 269 4.0 6.0 0.00 0.00 0.00 72 1014.8
20260901161605 86 219 4.0 5.0 0.00 0.00 0.00 72 1014.3
20260901161104 85 238 0.0 0.0 0.00 0.00 0.00 73 1014.6
20260901160601 86 232 3.0 5.0 0.00 0.00 0.00 74 1014.4
20260901160056 85 217 3.0 3.0 0.00 0.00 0.00 73 1014.4
20260901155555 85 220 0.0 0.0 0.00 0.00 0.00 72 1014.6
20260901155051 85 269 4.0 5.0 0.00 0.00 0.00 73 1014.3
20260901154550 85 239 2.0 2.0 0.00 0.00 0.00 74 1014.3
20260901154045 85 261 1.0 2.0 0.00 0.00 0.00 73 1014.2
20260901153540 85 205 2.0 3.0 0.00 0.00 0.00 72 1014.3
20260901153034 84 340 4.0 6.0 0.00 0.00 0.00 73 1014.2
20260901152529 84 216 4.0 6.0 0.00 0.00 0.00 74 1014.2
20260901152028 84 220 2.0 3.0 0.00 0.00 0.00 74 1014.4
20260901151524 84 209 5.0 9.0 0.00 0.00 0.00 74 1014.7
20260901151023 84 221 3.0 3.0 0.00 0.00 0.00 74 1014.9
20260901150521 84 226 5.0 7.0 0.00 0.00 0.00 74 1014.8
20260901150020 84 222 2.0 3.0 0.00 0.00 0.00 74 1014.4
20260901145518 83 247 3.0 3.0 0.00 0.00 0.00 74 1014.6
20260901145013 83 225 3.0 3.0 0.00 0.00 0.00 75 1014.2
20260901144509 83 235 1.0 1.0 0.00 0.00 0.00 75 1014.3
20260901144004 82 259 5.0 8.0 0.00 0.00 0.00 75 1014.8
20260901143459 82 229 1.0 2.0 0.00 0.00 0.00 76 1014.4
20260901142955 82 245 3.0 3.0 0.00 0.00 0.00 77 1014.6
20260901142449 82 251 3.0 5.0 0.00 0.00 0.00 75 1014.6
20260901141945 82 203 3.0 3.0 0.00 0.00 0.00 76 1014.4
20260901141444 82 243 2.0 2.0 0.00 0.00 0.00 76 1014.3
20260901140940 82 251 1.0 2.0 0.00 0.00 0.00 78 1014.4
20260901140437 82 248 2.0 2.0 0.00 0.00 0.00 77 1014.3
20260901135932 82 245 2.0 2.0 0.00 0.00 0.00 78 1014.3
20260901135427 82 235 1.0 2.0 0.00 0.00 0.00 78 1014.2
20260901134923 82 218 4.0 5.0 0.00 0.00 0.00 77 1014.1
20260901134419 81 237 1.0 1.0 0.00 0.00 0.00 79 1014.1
20260901133918 81 236 1.0 1.0 0.00 0.00 0.00 79 1014.0
20260901133417 80 224 1.0 1.0 0.00 0.00 0.00 80 1014.1
20260901132917 80 233 0.0 1.0 0.00 0.00 0.00 82 1013.9
20260901132412 79 219 1.0 2.0 0.00 0.00 0.00 82 1014.1
20260901131910 80 252 2.0 2.0 0.00 0.00 0.00 81 1014.2
20260901131410 79 224 2.0 2.0 0.00 0.00 0.00 81 1014.1
20260901130906 79 227 2.0 2.0 0.00 0.00 0.00 82 1014.3
20260901130400 79 209 3.0 5.0 0.00 0.00 0.00 82 1014.4
20260901125858 78 219 1.0 2.0 0.00 0.00 0.00 83 1014.2
20260901125357 78 243 5.0 6.0 0.00 0.00 0.00 82 1014.6
20260901124852 77 223 3.0 3.0 0.00 0.00 0.00 85 1014.3
20260901124348 77 214 0.0 0.0 0.00 0.00 0.00 85 1014.4
20260901123847 77 197 1.0 3.0 0.00 0.00 0.00 85 1014.4
20260901123342 77 242 1.0 1.0 0.00 0.00 0.00 85 1014.6